Location: Oberwangen
(47.4286°N, 8.9679°E)
Time: 13:49:03
(UTC+00:00)

Cosmos 1607 - Pass Details

Date: 19 October 2021
Orbit: 918 x 984 km, 65.0° (Epoch: 03 December)

Event Time Altitude Azimuth Distance (km) Brightness Sun altitude
Rises 16:45:54 0° 322° (NW) 3,666 7.4 -3.7°
Reaches altitude 10° 16:48:31 10° 325° (NW) 2,707 6.7 -4.1°
Maximum altitude 16:54:50 73° 50° (NE) 997 4.0 -5.1°
Drops below altitude 10° 17:01:01 10° 135° (SE) 2,645 5.9 -6.2°
Sets 17:03:32 0° 138° (SE) 3,577 6.6 -6.6°
